IZ1DSJ Weather Reports


time (UTC)temp
C
wind
direction
speed
KPH
gust
KPH
rain 1hr
cm
rain 24hr
cm
rain mn
cm
humidity
%
barometer
mb
20260505041516 9 0.0 0.0 0.00 0.00 0.00 81 1011.1
20260505040515 9 0.0 0.0 0.00 0.00 0.00 81 1011.1
20260505035516 9 0.0 0.0 0.00 0.00 0.00 81 1011.1
20260505034515 9 0.0 0.0 0.00 0.00 0.00 81 1011.1
20260505033515 9 0.0 0.0 0.00 0.00 0.00 81 1011.3
20260505032516 10 0.0 0.0 0.00 0.00 0.00 81 1011.4
20260505031516 10 0.0 0.0 0.00 0.00 0.00 81 1011.4
20260505030515 10 0.0 0.0 0.00 0.00 0.00 81 1011.4
20260505025536 10 0.0 0.0 0.00 0.00 0.00 80 1011.5
20260505024537 10 0.0 0.0 0.00 0.00 0.00 80 1011.5
20260505023518 10 0.0 0.0 0.00 0.00 0.00 79 1011.5
20260505022515 10 0.0 0.0 0.00 0.00 0.00 79 1011.5
20260505021517 10 0.0 0.0 0.00 0.00 0.00 78 1011.5
20260505020518 10 0.0 0.0 0.00 0.00 0.00 79 1011.7
20260505015517 10 0.0 0.0 0.00 0.00 0.00 79 1011.8
20260505014539 10 0.0 0.0 0.00 0.00 0.00 80 1011.9
20260505013517 10 0.0 0.0 0.00 0.00 0.00 79 1012.1
20260505012538 10 0.0 0.0 0.00 0.00 0.00 78 1012.2
20260505011538 10 0.0 0.0 0.00 0.00 0.00 77 1012.4
20260505010517 11 0.0 0.0 0.00 0.00 0.00 73 1012.5
20260505005518 11 0.0 0.0 0.00 0.00 0.00 73 1012.7
20260505004517 10 0.0 0.0 0.00 0.00 0.00 74 1012.8
20260505003517 10 0.0 0.0 0.00 0.00 0.00 75 1013.2
20260505002518 11 0.0 0.0 0.00 0.00 0.00 74 1013.2
20260505001537 10 0.0 0.0 0.00 0.00 0.00 75 1013.3
20260505000517 10 0.0 0.0 0.00 0.00 0.00 76 1013.4
20260504235538 10 0.0 0.0 0.00 0.00 0.00 76 1013.6
20260504234517 11 0.0 0.0 0.00 0.00 0.00 75 1013.6
20260504233518 11 0.0 0.0 0.00 0.00 0.00 73 1013.8
20260504232517 11 0.0 0.0 0.00 0.00 0.00 71 1014.0
20260504231517 11 0.0 0.0 0.00 0.00 0.00 70 1014.3
20260504230517 11 0.0 0.0 0.00 0.00 0.00 69 1014.4
20260504225537 11 0.0 0.0 0.00 0.00 0.00 70 1014.5
20260504224517 11 0.0 0.0 0.00 0.00 0.00 73 1014.7
20260504223517 11 0.0 0.0 0.00 0.00 0.00 71 1014.8
20260504222518 11 0.0 0.0 0.00 0.00 0.00 70 1015.0
20260504221517 11 0.0 0.0 0.00 0.00 0.00 72 1015.0
20260504220517 11 0.0 0.0 0.00 0.00 0.00 73 1015.1
20260504215536 11 0.0 0.0 0.00 0.00 0.00 75 1015.1
20260504214517 11 0.0 0.0 0.00 0.00 0.00 74 1015.2
20260504213517 11 0.0 0.0 0.00 0.00 0.00 72 1015.3
20260504212517 11 0.0 0.0 0.00 0.00 0.00 74 1015.6
20260504211517 11 0.0 0.0 0.00 0.00 0.00 75 1015.7
20260504210516 11 0.0 0.0 0.00 0.00 0.00 74 1015.9
20260504205517 11 0.0 0.0 0.00 0.00 0.00 75 1015.9
20260504204517 10 0.0 0.0 0.00 0.00 0.00 77 1016.0
20260504203517 10 0.0 0.0 0.00 0.00 0.00 78 1016.0
20260504202517 10 0.0 0.0 0.00 0.00 0.00 78 1016.0
20260504201536 10 0.0 0.0 0.00 0.00 0.00 78 1016.0
20260504200516 10 0.0 0.0 0.00 0.00 0.00 80 1015.9
20260504195536 10 0.0 0.0 0.00 0.00 0.00 80 1016.0
20260504194516 10 0.0 0.0 0.00 0.00 0.00 80 1016.0
20260504193516 10 0.0 0.0 0.00 0.00 0.00 79 1015.9
20260504192517 10 0.0 0.0 0.00 0.00 0.00 79 1015.8
20260504191516 10 0.0 0.0 0.00 0.00 0.00 77 1015.7
20260504190516 11 0.0 0.0 0.00 0.00 0.00 76 1015.6
20260504185516 11 0.0 0.0 0.00 0.00 0.00 73 1015.4
20260504184516 11 0.0 0.0 0.00 0.00 0.00 71 1015.3
20260504183536 12 0.0 0.0 0.00 0.00 0.00 71 1015.3
20260504182516 12 0.0 0.0 0.00 0.00 0.00 69 1015.2
20260504181516 12 0.0 0.0 0.00 0.00 0.00 67 1015.1
20260504180517 12 0.0 0.0 0.00 0.00 0.00 70 1015.0
20260504175517 12 0.0 0.0 0.00 0.00 0.00 71 1014.6
20260504174516 12 0.0 0.0 0.00 0.00 0.00 73 1014.5
20260504173517 12 0.0 0.0 0.00 0.00 0.00 74 1014.5
20260504172517 13 0.0 0.0 0.00 0.00 0.00 72 1014.4
20260504171516 13 0.0 0.0 0.00 0.00 0.00 73 1014.3
20260504170516 13 0.0 0.0 0.00 0.00 0.00 72 1014.1
20260504150516 14 0.0 0.0 0.00 0.00 0.00 65 1014.3
20260504140536 14 0.0 0.0 0.00 0.00 0.00 63 1014.7
20260504130536 13 0.0 0.0 0.00 0.00 0.00 69 1015.5
20260504110516 17 0.0 0.0 0.00 0.00 0.00 52 1015.3
20260504050536 12 0.0 0.0 0.00 0.00 0.00 76 1014.0
20260504045536 12 0.0 0.0 0.00 0.00 0.00 76 1013.8